Temp
-12 -12 -12 -12 -12 -12 -12 -12 -12 -12 -12 -12 -12 -12 -12 -12 -12 -12 -12 -12 -12 -12 -12 -12 -12 -12 -12 -12 -12 -12 -12 -12 -12 -12 -12 -12 -12 -12 -12 -13 -13 -13 -13
-12 -12 -12 -12 -12 -13 -12 -12 -12 -12 -12 -12 -12 -12 -12 -12 -12 -12 -12 -13 -13 -13 -13 -13 -13 -13 -13 -13 -13 -12 -12 -12 -12 -13 -13 -13 -12 -13 -13 -13 -14 -14 -14
-13 -13 -13 -13 -13 -13 -13 -13 -13 -13 -13 -13 -13 -13 -13 -13 -13 -13 -13 -13 -13 -13 -13 -13 -13 -13 -13 -13 -13 -13 -13 -13 -13 -13 -13 -13 -13 -13 -13 -14 -14 -14 -14
-13 -13 -13 -13 -13 -13 -13 -13 -13 -13 -13 -13 -13 -13 -13 -13 -13 -13 -13 -13 -13 -13 -14 -14 -13 -13 -13 -14 -14 -13 -13 -13 -13 -13 -13 -14 -14 -14 -14 -14 -14 -14 -14
-12 -13 -13 -13 -13 -13 -14 -14 -14 -14 -14 -14 -14 -14 -14 -14 -14 -14 -14 -14 -14 -13 -14 -14 -14 -14 -14 -14 -14 -14 -14 -14 -14 -14 -14 -14 -14 -14 -14 -14 -15 -15 -15
-13 -13 -13 -13 -13 -14 -14 -14 -14 -13 -13 -14 -14 -14 -14 -14 -14 -14 -14 -14 -14 -14 -14 -14 -14 -14 -14 -14 -14 -14 -14 -14 -14 -14 -14 -14 -14 -14 -15 -15 -15 -15 -15
-12 -12 -13 -13 -14 -13 -14 -14 -14 -14 -14 -14 -14 -14 -14 -15 -15 -15 -15 -15 -15 -15 -15 -15 -15 -14 -14 -15 -15 -15 -15 -15 -14 -14 -14 -14 -14 -15 -15 -15 -15 -15 -15
-13 -14 -13 -13 -13 -14 -14 -14 -14 -14 -14 -14 -14 -14 -15 -15 -15 -15 -15 -15 -15 -15 -15 -15 -15 -14 -14 -15 -15 -15 -15 -15 -14 -14 -14 -14 -14 -15 -15 -15 -15 -15 -15
-13 -14 -13 -13 -13 -13 -14 -14 -14 -14 -14 -14 -14 -14 -15 -15 -15 -15 -15 -15 -15 -15 -15 -15 -15 -15 -15 -15 -15 -15 -14 -14 -14 -15 -15 -15 -15 -15 -16 -16 -16 -16 -16
-13 -14 -14 -14 -14 -13 -13 -14 -14 -14 -14 -14 -14 -14 -15 -15 -15 -15 -15 -15 -15 -15 -15 -15 -15 -15 -15 -15 -15 -15 -15 -14 -15 -15 -15 -15 -15 -16 -16 -17 -16 -16 -16
-13 -13 -13 -14 -13 -13 -13 -14 -14 -14 -14 -14 -14 -14 -15 -15 -15 -15 -15 -15 -15 -15 -15 -15 -15 -15 -15 -15 -15 -15 -15 -15 -15 -15 -15 -15 -15 -16 -17 -17 -16 -17 -17
-14 -14 -14 -14 -14 -14 -14 -14 -14 -14 -14 -14 -14 -14 -15 -15 -15 -15 -15 -15 -15 -14 -15 -15 -15 -15 -15 -15 -16 -16 -15 -15 -15 -15 -16 -15 -16 -16 -17 -17 -17 -17 -17
-13 -13 -14 -14 -14 -14 -14 -14 -14 -14 -14 -14 -14 -14 -15 -14 -15 -15 -15 -14 -14 -14 -14 -15 -15 -15 -15 -16 -16 -16 -16 -16 -16 -16 -16 -15 -16 -16 -17 -17 -18 -18 -18
-12 -13 -13 -14 -14 -14 -14 -14 -14 -14 -14 -14 -14 -15 -15 -15 -15 -15 -15 -15 -14 -14 -14 -15 -15 -16 -16 -16 -17 -16 -16 -16 -16 -16 -16 -16 -15 -16 -18 -18 -18 -18 -19
-12 -13 -14 -14 -14 -14 -14 -14 -15 -14 -15 -14 -14 -14 -15 -15 -15 -15 -15 -15 -16 -15 -15 -16 -15 -16 -16 -17 -16 -17 -17 -17 -17 -17 -17 -17 -17 -18 -18 -19 -19 -18 -19
-13 -14 -14 -14 -14 -14 -15 -15 -15 -14 -15 -15 -14 -15 -15 -15 -15 -15 -15 -16 -16 -15 -16 -16 -16 -16 -16 -16 -17 -17 -17 -17 -17 -17 -17 -17 -18 -18 -18 -18 -19 -19 -20
-13 -14 -15 -14 -14 -14 -15 -15 -15 -15 -15 -15 -15 -15 -15 -15 -15 -15 -16 -16 -16 -16 -16 -16 -17 -17 -17 -17 -17 -17 -18 -18 -18 -18 -18 -18 -18 -19 -19 -18 -19 -19 -20
-15 -15 -15 -15 -15 -15 -15 -15 -15 -15 -15 -15 -15 -15 -15 -15 -15 -16 -16 -17 -17 -17 -17 -17 -17 -17 -17 -17 -17 -18 -18 -18 -18 -18 -18 -19 -19 -19 -19 -19 -20 -21 -21
-15 -15 -15 -15 -15 -15 -15 -15 -15 -15 -15 -15 -15 -15 -15 -16 -16 -16 -16 -17 -17 -17 -17 -17 -17 -17 -17 -18 -18 -18 -18 -18 -18 -18 -19 -20 -20 -20 -20 -20 -21 -22 -22
-17 -16 -16 -16 -16 -16 -16 -16 -16 -16 -16 -15 -16 -15 -16 -16 -16 -17 -17 -17 -17 -18 -18 -18 -18 -18 -18 -18 -18 -18 -18 -19 -19 -20 -20 -20 -20 -21 -21 -21 -22 -23 -23
-17 -17 -17 -17 -17 -17 -16 -16 -16 -16 -16 -16 -17 -17 -17 -17 -18 -18 -18 -18 -18 -19 -19 -19 -19 -19 -19 -19 -19 -19 -19 -20 -20 -21 -21 -21 -21 -22 -22 -23 -23 -23 -23
-19 -18 -18 -18 -18 -18 -18 -17 -17 -16 -17 -17 -18 -18 -19 -19 -19 -19 -19 -19 -19 -19 -19 -19 -19 -19 -19 -19 -19 -20 -21 -21 -21 -21 -21 -22 -22 -23 -23 -24 -24 -23 -23
-21 -19 -19 -19 -20 -19 -19 -18 -18 -19 -19 -19 -19 -19 -19 -19 -19 -19 -19 -19 -19 -19 -19 -19 -19 -19 -20 -21 -21 -22 -22 -21 -22 -23 -23 -24 -24 -24 -24 -24 -24 -25 -25
-21 -21 -21 -20 -21 -21 -20 -20 -20 -20 -20 -20 -20 -19 -19 -19 -19 -19 -19 -19 -19 -19 -19 -20 -21 -21 -21 -21 -22 -22 -22 -23 -24 -25 -25 -25 -25 -24 -25 -25 -26 -25 -25
-22 -22 -21 -21 -21 -21 -20 -20 -21 -21 -20 -20 -20 -20 -20 -19 -19 -20 -20 -20 -20 -20 -21 -22 -22 -22 -22 -22 -23 -24 -25 -25 -25 -25 -25 -24 -25 -25 -26 -26 -26 -26 -26
-23 -22 -22 -21 -21 -21 -21 -21 -20 -21 -21 -20 -20 -20 -20 -20 -20 -20 -20 -21 -21 -22 -23 -23 -23 -22 -23 -24 -24 -25 -26 -26 -26 -25 -26 -26 -26 -26 -26 -26 -26 -26 -26
Height
5812 5811 5811 5811 5811 5810 5810 5810 5809 5810 5810 5809 5809 5808 5808 5807 5807 5807 5807 5806 5806 5806 5805 5803 5803 5802 5802 5801 5801 5800 5800 5799 5798 5797 5796 5795 5794 5792 5791 5789 5788 5786 5785
5805 5805 5805 5805 5804 5804 5804 5804 5803 5803 5803 5803 5802 5802 5801 5800 5800 5800 5799 5799 5799 5799 5798 5797 5795 5795 5794 5794 5794 5793 5793 5792 5792 5791 5790 5788 5787 5785 5784 5783 5782 5780 5778
5797 5798 5798 5798 5797 5796 5797 5797 5796 5796 5796 5795 5795 5794 5793 5793 5792 5792 5791 5791 5791 5790 5790 5789 5789 5788 5787 5786 5786 5786 5785 5785 5785 5784 5782 5780 5779 5778 5777 5776 5774 5772 5771
5785 5787 5789 5789 5788 5789 5788 5788 5788 5788 5788 5788 5787 5787 5786 5785 5784 5784 5783 5783 5782 5782 5782 5781 5780 5779 5779 5779 5778 5778 5777 5777 5776 5775 5773 5772 5771 5771 5769 5768 5767 5765 5763
5771 5776 5777 5776 5779 5780 5779 5779 5779 5779 5779 5779 5778 5778 5777 5777 5776 5775 5775 5774 5774 5773 5773 5772 5772 5771 5771 5770 5770 5769 5769 5768 5767 5766 5765 5764 5763 5763 5762 5761 5759 5757 5755
5757 5760 5765 5765 5767 5769 5770 5770 5769 5769 5770 5769 5769 5769 5768 5767 5767 5767 5766 5765 5765 5765 5764 5763 5761 5761 5762 5761 5761 5760 5760 5759 5758 5756 5756 5755 5754 5753 5752 5750 5749 5747 5746
5751 5749 5754 5752 5756 5758 5759 5758 5758 5759 5760 5760 5760 5759 5758 5758 5758 5758 5756 5757 5756 5755 5755 5754 5752 5751 5751 5752 5751 5751 5750 5749 5747 5746 5745 5745 5743 5742 5741 5740 5739 5738 5737
5741 5741 5740 5738 5742 5745 5745 5746 5748 5748 5749 5750 5750 5749 5748 5749 5749 5747 5748 5747 5746 5746 5746 5745 5743 5742 5741 5742 5741 5741 5740 5739 5737 5736 5734 5734 5733 5732 5731 5730 5729 5728 5726
5730 5727 5727 5729 5728 5728 5730 5733 5735 5736 5738 5738 5740 5738 5737 5738 5738 5738 5737 5737 5736 5736 5735 5735 5734 5733 5732 5731 5731 5730 5729 5728 5726 5724 5723 5723 5722 5721 5720 5719 5718 5717 5715
5714 5715 5713 5715 5716 5718 5718 5720 5723 5723 5724 5726 5727 5728 5726 5727 5726 5727 5727 5725 5726 5726 5726 5726 5725 5725 5723 5722 5721 5720 5717 5716 5714 5712 5712 5711 5710 5708 5708 5707 5705 5705 5704
5702 5700 5702 5701 5702 5704 5702 5704 5707 5710 5712 5714 5716 5716 5715 5716 5717 5717 5717 5715 5714 5714 5715 5715 5714 5713 5712 5712 5710 5708 5706 5704 5702 5701 5699 5698 5697 5696 5695 5694 5693 5692 5691
5684 5684 5686 5686 5688 5691 5693 5694 5695 5697 5699 5701 5702 5703 5703 5703 5704 5704 5704 5704 5704 5704 5704 5703 5702 5700 5699 5698 5695 5694 5692 5690 5690 5689 5687 5686 5684 5682 5681 5680 5680 5678 5676
5666 5666 5667 5670 5674 5677 5679 5680 5682 5684 5685 5687 5688 5689 5689 5689 5690 5690 5691 5690 5690 5691 5692 5691 5689 5686 5685 5683 5682 5680 5678 5677 5676 5675 5673 5672 5669 5667 5667 5667 5666 5664 5663
5646 5644 5646 5651 5657 5662 5665 5666 5668 5670 5672 5672 5674 5675 5675 5675 5676 5677 5676 5676 5675 5676 5677 5677 5674 5673 5672 5669 5666 5665 5663 5663 5662 5662 5659 5658 5656 5653 5653 5653 5651 5649 5648
5623 5626 5625 5632 5639 5645 5649 5652 5654 5659 5659 5658 5659 5659 5662 5662 5662 5663 5662 5661 5659 5659 5661 5661 5658 5657 5657 5654 5654 5652 5650 5650 5650 5648 5645 5643 5641 5640 5639 5637 5635 5634 5632
5611 5609 5613 5619 5624 5630 5633 5635 5640 5643 5644 5645 5645 5646 5648 5647 5647 5647 5647 5646 5646 5644 5646 5647 5645 5642 5642 5641 5640 5639 5636 5636 5634 5632 5632 5630 5628 5626 5624 5622 5619 5617 5615
5600 5597 5602 5608 5611 5616 5619 5622 5624 5626 5629 5630 5631 5632 5630 5631 5632 5633 5634 5635 5633 5632 5634 5633 5631 5631 5630 5629 5627 5625 5622 5621 5620 5619 5618 5616 5613 5610 5607 5605 5602 5600 5599
5585 5585 5586 5591 5598 5602 5605 5607 5609 5613 5614 5616 5617 5616 5615 5617 5618 5619 5620 5620 5619 5618 5619 5618 5618 5618 5617 5616 5615 5613 5610 5607 5605 5603 5601 5598 5596 5593 5590 5588 5585 5583 5582
5576 5574 5575 5577 5581 5586 5590 5593 5596 5598 5598 5600 5601 5602 5602 5604 5605 5606 5607 5606 5606 5606 5605 5605 5606 5605 5604 5603 5601 5598 5594 5590 5587 5585 5583 5579 5577 5576 5573 5571 5567 5567 5565
5567 5565 5565 5564 5567 5570 5574 5575 5578 5581 5583 5586 5587 5587 5588 5589 5591 5592 5592 5593 5593 5593 5593 5592 5591 5591 5590 5588 5584 5581 5578 5573 5570 5567 5565 5563 5559 5558 5555 5553 5550 5548 5548
5550 5553 5554 5554 5556 5558 5560 5563 5565 5567 5569 5571 5572 5573 5575 5576 5579 5579 5580 5581 5580 5580 5579 5577 5576 5576 5574 5571 5567 5564 5560 5556 5553 5550 5546 5543 5541 5539 5538 5534 5532 5531 5530
5537 5540 5541 5544 5543 5547 5547 5550 5552 5553 5555 5557 5559 5560 5562 5563 5565 5567 5568 5568 5568 5566 5565 5562 5560 5558 5556 5552 5549 5546 5543 5539 5534 5532 5530 5522 5523 5520 5521 5516 5514 5513 5511
5521 5524 5527 5532 5533 5535 5536 5537 5538 5541 5544 5548 5550 5551 5552 5554 5555 5555 5555 5554 5553 5551 5548 5546 5543 5540 5537 5534 5532 5529 5526 5523 5518 5513 5514 5508 5506 5505 5503 5499 5495 5493 5491
5508 5511 5514 5516 5521 5522 5523 5527 5528 5530 5533 5536 5538 5540 5540 5541 5541 5540 5539 5538 5536 5534 5530 5528 5525 5523 5521 5517 5515 5512 5508 5505 5501 5496 5497 5498 5490 5489 5487 5482 5478 5474 5471
5495 5497 5500 5503 5506 5509 5511 5513 5515 5517 5520 5522 5524 5525 5525 5525 5525 5524 5524 5522 5519 5517 5514 5512 5509 5505 5503 5500 5497 5492 5491 5489 5487 5484 5482 5480 5477 5475 5470 5467 5460 5454 5449
5480 5481 5484 5488 5492 5494 5497 5497 5500 5503 5505 5507 5508 5509 5509 5509 5508 5507 5506 5503 5502 5501 5497 5496 5493 5490 5487 5484 5482 5480 5479 5476 5473 5470 5463 5463 5457 5454 5455 5450 5442 5434 5427
Wind_Speed
28 26 26 25 27 26 26 25 25 26 28 28 29 29 30 30 30 31 32 33 34 34 34 36 36 35 34 33 32 31 30 29 28 27 26 26 27 27 26 23 23 26 32
31 31 30 31 31 30 29 29 27 26 27 28 29 30 32 33 33 33 33 33 34 35 35 35 36 35 34 34 33 31 30 29 29 29 28 28 29 28 27 26 24 26 30
37 36 36 34 34 33 33 32 30 28 28 30 31 32 32 33 34 35 35 35 34 35 35 34 35 35 34 33 32 31 31 31 31 30 30 30 31 31 29 28 27 28 31
43 42 40 40 39 37 37 37 35 33 31 31 32 34 34 35 35 35 35 35 36 36 35 34 34 34 34 34 33 32 32 32 31 30 30 31 34 34 30 30 30 31 32
57 47 44 46 40 41 40 40 39 35 34 35 36 35 36 37 36 35 35 35 35 36 36 36 36 35 34 34 33 32 33 33 33 31 32 34 35 35 31 31 33 34 36
69 41 45 48 45 42 43 43 44 44 41 38 39 40 38 38 38 36 35 35 35 35 36 35 36 36 34 34 32 32 34 35 35 35 34 35 37 34 32 34 37 37 39
63 48 54 52 56 42 44 46 49 48 44 41 41 42 41 39 38 37 36 35 37 36 36 35 37 37 34 32 33 35 37 37 37 38 38 39 38 35 34 36 39 40 43
61 60 61 53 48 52 50 51 50 51 48 43 45 47 42 40 39 40 39 39 37 37 37 37 36 37 36 35 38 37 39 39 39 41 42 42 40 35 35 39 41 43 46
62 63 63 59 55 61 56 48 55 54 52 50 47 49 44 42 42 43 43 39 37 38 37 37 38 39 40 38 38 39 41 43 45 44 44 44 42 38 39 43 46 47 50
61 60 63 63 63 59 57 63 61 60 55 52 50 52 51 43 42 42 44 44 39 42 41 38 38 37 40 42 43 45 45 47 47 47 45 45 45 41 41 44 47 50 52
61 63 60 67 60 60 64 62 53 63 58 54 51 52 53 46 40 42 43 44 43 42 46 45 41 43 44 44 45 47 49 51 52 52 50 48 46 46 47 48 46 48 51
66 66 65 65 64 66 65 61 54 59 56 60 57 54 52 51 52 49 50 48 46 44 45 49 52 55 53 50 49 49 51 53 53 52 51 52 49 48 51 52 52 50 51
64 68 67 67 64 60 62 63 62 62 63 60 59 57 58 54 51 55 56 57 56 53 49 51 58 55 60 52 46 50 56 58 56 55 55 57 53 51 54 56 54 55 55
64 75 74 67 63 63 61 63 57 59 59 55 62 60 57 49 48 63 53 46 51 54 59 59 47 56 55 49 55 56 58 57 57 55 55 57 58 54 55 59 59 61 62
38 63 69 66 62 63 65 66 65 66 65 60 63 49 58 59 58 57 53 50 47 43 58 55 45 43 43 55 57 56 56 54 54 56 55 55 55 56 58 61 64 65 62
44 38 54 56 56 60 62 64 61 59 59 56 58 53 53 63 58 53 42 48 47 41 45 47 44 46 52 54 54 53 53 54 56 58 59 56 53 53 58 61 61 60 62
54 45 48 52 57 60 62 63 62 61 58 57 60 69 60 52 54 51 46 47 42 43 47 47 43 47 51 53 54 55 56 57 59 58 58 59 56 55 57 61 60 62 65
40 37 43 57 60 61 61 58 59 60 62 63 62 60 58 63 54 48 46 44 45 43 48 46 49 52 52 55 56 55 58 61 62 61 63 63 63 62 60 60 64 65 65
53 48 46 50 56 62 62 62 64 67 64 64 65 62 58 56 54 50 49 47 46 47 48 51 52 54 56 57 58 58 59 63 64 65 66 65 66 62 60 60 64 66 65
47 41 40 45 44 46 50 50 54 56 57 58 60 66 59 55 52 46 45 47 47 46 47 49 49 51 54 57 61 63 65 67 67 68 68 67 62 61 60 62 64 66 65
49 47 45 42 44 46 52 54 56 57 59 57 53 52 47 43 41 41 43 43 44 47 50 52 55 58 62 64 66 68 70 70 70 66 63 60 63 62 62 63 61 59 60
38 38 36 37 36 43 48 54 60 60 61 54 45 39 38 37 40 43 46 49 51 54 56 58 63 67 70 71 72 69 66 64 63 66 61 64 61 62 63 62 61 62 62
49 47 51 51 38 32 33 42 38 36 34 35 36 36 39 43 45 47 49 52 54 57 62 65 69 71 71 68 61 62 64 65 61 60 59 58 60 60 61 64 64 64 65
39 39 45 47 41 43 46 48 41 38 38 36 36 39 42 46 49 52 55 60 63 66 68 70 72 71 67 59 60 65 62 60 55 55 57 56 59 60 61 62 64 65 67
41 40 38 39 42 42 44 48 43 39 40 41 42 45 48 50 54 58 61 67 69 72 68 65 55 55 58 60 60 57 52 50 53 56 60 61 63 62 61 64 66 68 70
48 48 47 45 44 47 42 44 45 45 42 44 45 49 53 55 58 62 67 68 69 63 54 53 53 54 54 54 51 49 52 53 56 61 59 61 62 65 65 65 67 70 73
Wind_Direction
268 269 271 273 274 274 274 271 269 269 270 270 271 272 273 274 275 275 275 275 275 276 277 279 282 285 286 287 287 290 293 296 299 300 300 303 302 302 307 310 310 310 318
269 268 272 275 274 273 272 272 273 273 274 275 274 274 274 274 274 274 275 277 279 282 283 283 283 283 284 286 287 288 291 293 296 299 299 303 304 305 309 307 299 303 312
265 266 267 272 275 273 273 271 271 274 279 281 281 277 275 275 274 275 275 276 277 278 279 281 284 284 283 284 285 289 290 292 293 296 299 300 303 306 304 303 296 300 302
257 261 263 268 270 274 274 273 273 277 280 282 280 280 279 275 272 274 276 277 277 278 279 278 278 279 280 282 285 286 287 292 294 295 296 296 299 301 296 296 297 293 296
258 252 257 258 263 269 272 273 274 276 277 282 283 281 280 276 271 271 273 274 276 279 280 279 278 277 278 280 281 283 287 290 292 292 292 293 295 296 291 287 284 282 287
255 248 252 256 255 262 267 272 272 273 276 278 282 287 279 277 275 274 273 276 278 277 278 278 276 276 278 277 278 282 286 288 289 290 290 293 293 289 288 280 277 281 283
274 264 271 255 253 257 261 265 268 273 273 274 277 282 276 276 276 275 274 273 272 274 277 277 277 276 275 275 276 280 283 284 287 288 288 291 290 284 283 276 279 282 286
260 263 261 249 249 251 255 255 263 269 269 271 277 277 276 276 273 273 272 276 277 276 276 276 274 273 273 272 275 277 278 280 285 287 286 288 286 280 280 278 281 284 285
259 258 258 258 249 242 250 253 260 263 269 268 275 277 280 276 273 270 271 278 273 273 270 268 269 272 274 273 272 274 279 281 280 284 286 288 286 278 276 280 282 286 286
256 255 258 261 261 258 259 252 255 259 264 267 269 276 280 280 277 268 271 273 273 274 273 273 272 272 272 272 272 273 275 277 275 280 282 284 284 274 279 281 282 284 284
258 259 254 255 258 257 256 248 256 258 258 262 269 272 277 280 277 271 267 272 275 274 274 273 275 275 279 276 279 272 275 278 276 278 279 282 284 274 275 281 283 285 284
256 253 252 254 253 251 253 262 260 266 263 270 268 271 275 277 276 278 273 269 269 273 276 279 279 281 281 278 277 273 275 276 279 280 282 283 281 275 272 276 286 285 285
264 260 248 247 250 251 254 257 260 262 266 267 268 268 270 273 276 279 278 271 273 273 278 280 283 291 282 274 273 276 273 277 280 282 283 282 279 276 271 276 284 289 287
264 258 250 242 244 247 252 255 253 264 266 264 268 266 263 263 268 280 275 273 278 277 280 282 276 286 278 267 265 271 275 279 282 284 284 283 280 276 273 277 283 288 289
239 246 235 237 240 247 250 254 255 255 262 260 255 258 265 266 271 268 271 285 283 281 280 270 270 269 264 266 268 270 276 281 281 283 283 283 283 282 280 282 285 287 286
238 232 241 240 242 248 252 257 259 252 261 258 268 260 267 263 263 273 268 269 267 266 264 267 272 262 261 269 271 273 277 280 279 279 282 283 285 287 286 285 286 287 286
225 246 247 245 248 251 254 256 258 258 258 256 264 266 261 259 276 261 258 266 261 260 263 265 264 266 268 271 275 276 279 281 283 282 287 287 286 286 287 285 287 287 285
223 221 230 245 247 248 251 255 257 258 262 262 259 258 262 264 266 256 257 259 260 258 259 264 267 270 274 274 278 281 281 284 287 285 287 288 286 287 289 285 285 285 284
247 240 237 241 246 250 248 246 245 246 247 253 262 261 264 261 260 258 257 258 261 262 264 270 269 272 276 279 280 282 281 282 283 284 288 288 288 285 285 283 282 281 280
253 237 239 246 249 250 250 246 249 251 252 255 255 256 258 261 265 266 263 265 269 273 274 277 279 279 280 279 279 281 282 284 287 288 289 291 289 287 284 282 280 279 279
241 245 247 244 244 243 246 249 251 252 252 249 247 248 252 257 263 267 271 275 276 275 275 277 279 279 279 280 281 282 285 288 288 291 291 288 286 281 280 280 279 277 277
233 239 244 255 244 249 245 246 246 248 246 243 245 251 259 265 268 271 272 273 274 275 276 278 279 279 280 283 285 288 289 288 289 291 288 282 283 282 283 281 276 277 280
279 274 274 275 269 256 251 241 240 247 253 261 266 269 270 271 270 272 274 275 277 278 277 277 278 279 281 285 288 289 289 288 285 282 283 280 282 281 280 278 283 286 287
269 274 279 277 272 275 281 277 273 267 268 272 271 269 268 270 272 272 272 272 273 273 275 279 282 284 289 288 285 287 288 283 280 279 279 279 279 279 283 286 286 286 287
242 248 260 258 257 256 263 273 264 261 265 266 271 270 270 271 272 272 272 272 275 279 283 289 289 286 285 285 285 282 280 276 277 280 280 280 282 285 286 286 288 288 288
241 241 242 245 247 247 244 246 254 251 256 262 266 269 270 270 268 269 271 276 282 289 284 281 287 286 287 286 282 275 275 278 279 283 285 286 286 287 288 288 289 290 290